Wind_Speed
8 9 8 3 4 5 4 6 5 2 4 4 10 9 11 15 2 5 14 15 12 9 12 11 10 8 7 6 5 4 4 4 4 4 4 5 5 5 4 4 4 4 5 6 6 7 8 9 9
6 7 3 2 4 3 5 3 5 11 15 32 24 13 10 5 10 21 20 16 12 9 14 13 11 9 8 6 5 4 3 3 3 3 3 3 3 3 3 4 4 4 4 5 6 7 7 7 8
9 7 2 4 4 4 3 4 16 28 30 15 10 16 6 6 16 18 19 19 15 12 16 14 12 10 8 6 4 3 2 2 1 1 1 2 2 2 2 3 4 5 5 6 6 7 8 9 10
9 3 0 3 5 7 7 7 11 17 16 11 27 10 11 13 13 17 21 15 18 17 17 15 12 10 8 7 6 5 4 3 1 1 1 2 2 3 4 5 6 7 8 9 9 10 11 11 11
10 1 3 2 5 6 7 13 20 6 9 11 11 8 9 16 17 20 20 16 13 18 16 14 12 10 8 7 5 4 3 3 3 2 1 1 1 2 2 3 4 6 7 8 8 9 11 11 12
2 1 3 2 5 6 7 7 8 7 11 17 16 15 8 20 26 24 21 17 16 18 16 14 12 10 8 7 6 6 5 4 3 3 3 2 1 1 3 3 4 5 6 7 8 10 11 13 13
4 3 4 4 5 7 3 11 10 9 11 6 29 6 15 23 23 21 19 17 17 17 16 13 11 10 8 8 8 7 6 5 5 3 2 1 1 2 3 4 5 6 7 8 9 10 10 11 12
3 4 1 3 3 7 11 5 19 14 7 25 19 9 12 31 27 23 20 16 15 15 14 13 12 12 11 10 8 6 6 5 4 4 2 2 1 1 3 5 6 6 8 9 10 11 12 12 12
7 1 1 4 1 9 8 6 3 6 15 7 9 22 25 37 31 27 23 20 18 18 16 14 14 14 12 9 8 7 8 8 7 8 7 5 5 4 4 6 8 8 10 10 11 12 13 13 14
2 2 6 6 3 5 3 5 11 6 4 8 17 16 45 37 32 30 27 24 22 21 19 16 15 13 12 9 9 12 12 10 8 7 5 4 5 6 6 8 9 10 11 11 12 12 13 13 14
2 5 5 13 19 10 4 7 7 18 1 11 30 42 42 35 29 28 25 22 22 21 21 19 17 15 12 11 12 12 9 7 5 3 3 4 5 6 7 9 10 11 13 14 15 15 15 15 16
5 8 9 12 8 6 4 5 3 3 7 24 35 43 40 34 31 29 25 23 22 22 22 21 18 16 15 14 11 9 6 3 1 3 5 6 7 8 10 12 13 14 15 17 18 19 19 19 18
5 3 17 18 10 9 2 7 7 2 14 29 38 37 36 34 32 25 20 19 21 22 22 21 19 17 16 14 11 8 4 1 3 4 6 7 8 9 11 12 13 15 17 19 20 21 22 21 21
8 16 17 14 13 8 8 6 5 7 25 34 38 36 37 36 35 29 24 22 22 22 22 21 20 19 16 13 9 6 3 3 5 5 6 9 10 11 13 15 17 17 18 20 21 22 22 21 20
16 7 8 5 5 3 1 1 6 28 30 31 30 33 35 37 35 30 24 22 22 22 22 22 20 18 16 13 9 6 4 3 3 5 7 9 11 13 15 17 19 20 21 22 22 22 22 23 22
5 2 4 4 1 7 4 7 5 35 34 29 35 38 38 37 33 26 23 22 23 23 23 22 20 18 15 12 9 7 4 2 2 4 7 10 12 13 15 17 18 19 19 21 22 23 24 24 25
2 4 6 9 6 5 5 8 16 35 33 31 37 40 40 35 30 28 26 25 23 22 21 21 20 18 16 13 10 7 4 2 1 4 7 10 12 14 16 17 17 18 19 20 22 23 25 26 26
5 4 5 7 3 5 9 12 11 35 30 33 33 34 39 38 35 31 29 26 23 21 21 19 20 18 17 14 11 8 5 2 1 5 8 10 12 14 16 17 18 20 21 22 23 24 25 26 27
6 6 9 12 10 5 8 8 10 33 27 23 27 34 39 38 33 33 32 28 25 22 21 21 20 19 18 16 12 9 5 2 2 5 8 12 14 16 16 18 19 21 22 23 25 26 25 23 26
11 12 14 11 13 5 9 11 10 19 29 37 37 34 36 38 39 38 36 33 27 24 23 23 22 21 18 15 13 11 8 5 1 4 8 10 13 15 16 18 20 21 22 23 24 25 23 22 24
13 8 6 7 9 5 5 7 3 7 13 27 27 35 33 46 47 44 41 36 31 28 26 25 24 22 20 18 17 14 10 6 2 2 6 8 11 13 15 17 18 20 22 22 22 22 21 20 18
13 6 9 6 5 8 2 6 6 7 18 15 26 33 35 44 50 49 46 41 36 30 28 26 24 23 20 18 17 13 9 7 5 2 4 7 10 12 14 16 18 20 20 20 22 23 20 17 17
11 8 12 13 7 1 4 4 6 6 15 18 19 32 40 53 56 53 50 43 36 33 31 28 25 23 21 18 16 14 13 9 5 2 3 6 9 11 13 15 17 18 18 16 18 21 17 13 13
7 7 6 3 3 13 5 6 7 11 13 19 24 36 42 45 48 49 48 43 36 32 30 29 27 24 23 19 18 15 11 8 6 4 4 6 8 10 13 14 16 18 16 15 17 19 15 9 13
17 6 6 4 3 9 9 9 13 8 13 19 20 36 41 47 50 52 53 48 41 37 33 31 28 25 22 20 17 14 11 9 6 5 5 6 7 10 12 14 16 16 15 16 17 16 14 14 16
17 15 8 8 7 6 7 9 7 11 12 23 26 35 38 47 52 56 56 52 46 40 35 33 29 26 23 20 18 14 11 9 6 6 6 6 8 10 11 14 15 15 16 18 17 13 14 16 16
10 14 8 13 4 3 5 7 8 4 4 7 9 26 38 46 49 53 53 54 48 42 38 33 30 26 22 20 17 15 11 8 7 6 6 6 7 10 11 13 14 16 18 17 13 10 12 16 20
8 2 5 3 13 19 11 5 10 4 6 2 2 11 23 31 35 42 49 52 48 40 36 32 29 27 24 20 18 14 11 9 8 7 7 6 8 8 11 12 13 15 15 16 12 11 13 18 23
5 3 6 12 14 16 19 13 7 13 16 10 8 22 29 34 40 44 47 49 46 41 37 33 30 28 25 21 18 15 11 9 9 8 6 7 7 8 10 11 11 12 14 16 13 11 16 21 25
2 5 6 1 8 3 7 19 4 0 2 5 7 18 29 36 38 41 46 47 48 44 40 36 33 30 26 21 18 15 12 11 9 8 7 7 7 9 9 9 11 13 15 16 14 13 18 23 26
Wind_Direction
341 317 279 317 52 61 279 260 161 198 21 74 130 122 106 47 95 159 150 165 178 168 165 160 155 159 158 151 145 135 116 108 93 92 78 71 63 56 52 47 40 25 19 12 9 8 6 6 4
346 323 314 84 90 54 275 233 141 120 131 103 93 93 57 82 83 124 135 163 163 168 169 167 160 161 160 159 155 148 129 114 114 101 80 66 50 34 24 21 18 10 2 353 354 351 347 353 356
317 319 211 110 119 173 233 32 133 143 134 123 105 87 78 102 118 139 158 163 172 184 171 158 158 160 161 159 158 153 139 136 116 78 53 38 22 357 355 349 346 340 336 334 327 327 326 337 341
336 305 97 101 243 246 223 176 154 148 113 129 125 88 94 133 144 149 159 170 188 176 161 157 158 156 156 158 162 164 166 165 133 38 30 9 345 342 338 335 334 334 333 331 330 330 328 328 328
344 252 52 14 269 275 292 215 173 143 106 130 143 133 106 126 137 152 159 165 178 160 157 153 152 154 156 157 157 150 154 162 170 183 192 204 307 342 329 336 327 326 317 314 314 313 313 313 315
339 45 59 293 265 269 280 206 122 93 114 121 103 111 130 140 150 164 167 167 171 160 152 152 152 151 149 148 143 145 146 145 152 171 193 213 247 294 329 321 324 319 313 308 309 308 308 309 310
141 104 212 234 278 317 255 154 126 122 127 114 131 101 142 157 163 167 172 181 167 165 153 148 146 143 147 148 145 145 139 135 140 130 117 79 316 324 316 317 317 309 311 307 307 306 300 300 302
272 112 216 262 253 267 279 136 138 115 92 138 143 151 173 172 173 176 182 185 168 154 159 156 155 153 156 161 151 138 128 128 129 114 91 60 20 348 322 314 303 306 305 308 311 315 311 305 301
232 297 222 254 223 263 221 148 79 109 132 137 160 165 171 171 176 185 190 185 174 169 171 167 164 162 164 164 143 135 125 119 111 98 89 75 55 33 356 333 321 323 315 317 321 320 317 311 304
120 177 227 215 243 298 94 126 132 113 92 61 105 143 160 169 174 178 178 174 173 173 172 171 169 170 166 162 142 131 124 120 109 92 75 40 18 358 343 325 322 320 315 317 313 313 314 310 308
239 206 235 268 288 293 206 128 138 129 141 177 147 146 161 166 172 174 172 176 173 172 173 172 175 176 172 164 152 144 137 122 98 62 18 3 347 332 316 313 316 314 315 314 316 317 318 318 317
294 265 254 274 265 287 149 133 106 170 203 177 161 161 162 166 173 175 174 178 174 172 174 174 176 178 173 165 162 159 150 134 74 353 338 339 333 330 325 328 328 325 323 323 322 321 322 321 321
224 297 320 312 301 253 124 129 158 353 161 164 159 160 161 170 176 178 186 184 182 176 174 178 176 175 175 172 170 168 177 251 330 330 332 339 342 339 335 334 330 329 330 326 323 323 323 324 323
298 313 301 300 294 297 128 166 114 154 155 157 160 166 172 177 179 179 187 187 185 180 177 177 176 175 173 175 177 181 202 273 316 329 343 349 349 346 346 342 339 339 339 335 334 332 329 326 324
304 313 317 276 263 288 337 297 187 162 160 157 167 174 177 179 183 192 194 197 193 185 182 180 178 179 175 178 185 198 221 271 314 343 355 356 351 350 347 343 342 343 339 335 331 328 327 324 324
314 358 305 272 338 265 187 242 177 167 163 170 171 174 175 179 187 195 203 205 197 194 186 181 180 181 180 181 187 201 215 264 323 348 359 357 355 352 346 343 339 337 334 332 329 328 326 325 325
301 237 255 301 255 253 160 274 174 178 177 174 176 178 181 177 185 198 207 206 201 199 192 184 183 182 182 184 189 194 205 224 347 0 360 353 353 349 345 344 339 341 341 339 339 338 336 331 328
219 234 252 236 261 200 259 253 171 187 186 185 182 177 181 187 191 196 199 200 201 201 196 192 184 184 184 187 191 196 203 213 339 346 356 353 350 345 350 347 345 344 343 341 340 340 339 334 331
253 258 263 271 271 240 252 237 230 193 194 187 182 183 188 190 189 190 195 200 199 200 199 194 188 184 189 192 196 199 200 212 330 355 353 348 345 347 346 344 344 345 343 343 339 338 339 337 334
244 250 263 277 277 205 267 278 262 187 195 187 188 190 185 184 179 184 192 198 204 206 199 196 191 188 188 197 195 196 201 194 225 355 342 342 339 340 343 342 343 345 343 341 340 341 343 349 351
259 237 236 246 298 232 265 280 165 218 232 205 201 197 188 183 181 188 192 199 204 205 203 197 195 196 194 193 194 193 190 189 201 308 322 336 332 339 341 340 342 341 340 338 340 345 345 353 359
263 240 266 251 288 275 109 280 274 212 211 206 203 195 189 186 194 198 195 198 204 205 202 199 198 198 197 192 195 197 192 196 197 272 327 322 327 334 335 337 340 342 342 340 342 349 352 0 4
259 257 246 257 238 242 275 265 255 176 218 220 211 203 195 197 199 199 199 202 205 205 201 197 196 197 200 197 192 194 195 193 205 241 281 303 315 325 328 335 339 340 340 337 337 345 354 2 360
308 310 281 251 148 255 199 224 214 229 224 218 218 210 201 194 196 198 201 199 200 201 199 198 198 195 197 194 191 192 195 197 209 220 257 289 303 317 325 331 334 338 338 337 338 342 349 344 327
267 273 286 287 195 251 184 249 254 223 236 237 215 207 199 193 193 194 197 193 195 196 198 200 198 194 194 192 191 190 193 201 211 236 266 282 296 306 317 324 327 337 340 333 331 335 331 337 339
231 227 220 231 231 258 209 242 246 217 240 260 234 213 192 188 191 194 198 196 194 196 199 198 199 199 195 193 192 192 197 203 218 247 272 284 295 301 313 317 326 335 335 332 328 324 330 344 345
248 236 213 249 220 283 210 283 276 248 256 331 273 192 183 185 187 189 192 197 193 195 199 201 197 197 198 198 197 196 199 208 227 247 264 279 288 300 304 316 329 337 338 338 334 330 346 344 340
205 221 263 226 249 245 243 240 245 268 264 311 138 163 174 181 181 183 187 194 194 194 198 199 200 201 198 200 202 204 204 214 231 245 257 274 286 295 304 320 331 344 345 353 354 346 345 341 341
350 286 251 249 226 241 256 256 208 227 247 209 196 177 176 179 181 182 187 194 193 193 197 198 197 199 199 203 206 208 209 222 236 246 256 274 286 293 305 316 330 343 345 355 351 341 340 344 344
296 358 21 75 249 342 263 246 350 169 50 121 161 174 180 185 181 184 191 192 191 192 194 197 196 199 203 205 206 212 216 224 231 242 258 271 285 295 302 315 332 341 346 350 349 342 340 343 346
Height
1507 1507 1506 1506 1518 1522 1525 1511 1495 1499 1498 1501 1505 1504 1512 1515 1516 1530 1527 1530 1533 1534 1535 1536 1537 1538 1539 1540 1540 1541 1540 1540 1539 1540 1539 1538 1538 1538 1537 1537 1535 1535 1535 1534 1533 1532 1532 1532 1531
1506 1505 1505 1505 1526 1538 1524 1498 1497 1492 1502 1500 1508 1511 1513 1521 1519 1522 1527 1531 1533 1534 1535 1535 1536 1538 1539 1539 1540 1540 1539 1539 1539 1539 1538 1537 1537 1537 1537 1536 1535 1535 1535 1534 1533 1533 1531 1531 1531
1506 1504 1504 1510 1528 1532 1517 1493 1492 1494 1495 1496 1507 1513 1517 1522 1522 1523 1528 1530 1533 1533 1533 1534 1535 1537 1538 1539 1539 1539 1539 1539 1539 1538 1538 1537 1537 1537 1536 1535 1534 1534 1534 1533 1533 1532 1531 1530 1530
1505 1504 1506 1514 1517 1508 1498 1490 1495 1496 1499 1498 1503 1514 1521 1522 1524 1525 1528 1530 1531 1532 1532 1534 1535 1536 1537 1538 1538 1537 1537 1537 1537 1537 1537 1537 1537 1536 1535 1534 1534 1533 1533 1532 1531 1531 1530 1530 1529
1503 1503 1513 1518 1511 1499 1485 1484 1486 1484 1489 1496 1497 1515 1519 1523 1523 1526 1527 1530 1531 1531 1532 1533 1535 1536 1537 1537 1537 1538 1537 1536 1536 1536 1536 1535 1535 1534 1532 1532 1532 1531 1530 1529 1529 1529 1528 1527 1526
1502 1504 1519 1522 1508 1495 1484 1483 1483 1484 1489 1495 1499 1507 1519 1521 1522 1524 1526 1528 1529 1530 1532 1533 1535 1536 1536 1536 1536 1536 1536 1535 1535 1535 1534 1533 1533 1532 1531 1530 1530 1529 1528 1527 1527 1526 1526 1525 1524
1501 1507 1517 1510 1506 1495 1484 1485 1481 1484 1488 1492 1494 1507 1516 1519 1521 1523 1526 1528 1529 1530 1531 1533 1534 1535 1535 1535 1535 1535 1534 1534 1533 1533 1533 1533 1532 1531 1530 1529 1529 1527 1526 1526 1525 1524 1522 1522 1521
1499 1501 1507 1505 1503 1497 1482 1484 1484 1481 1489 1492 1493 1502 1513 1512 1517 1521 1524 1527 1528 1530 1531 1532 1533 1534 1534 1533 1534 1534 1534 1534 1533 1533 1533 1533 1532 1531 1530 1529 1527 1527 1526 1525 1524 1522 1521 1520 1519
1498 1505 1512 1505 1497 1489 1480 1481 1485 1484 1486 1488 1490 1491 1495 1507 1513 1517 1521 1524 1526 1528 1529 1531 1531 1531 1532 1532 1533 1533 1533 1533 1533 1532 1532 1532 1531 1530 1529 1528 1527 1526 1525 1524 1523 1521 1519 1518 1517
1495 1505 1499 1490 1487 1486 1478 1478 1482 1486 1489 1492 1490 1493 1495 1504 1509 1513 1517 1520 1523 1525 1527 1529 1530 1530 1531 1532 1532 1533 1533 1533 1533 1533 1533 1532 1531 1530 1529 1527 1526 1525 1523 1521 1520 1519 1517 1516 1514
1492 1497 1489 1484 1483 1482 1480 1478 1480 1483 1489 1487 1488 1491 1496 1503 1508 1511 1515 1519 1521 1523 1525 1527 1528 1529 1530 1531 1531 1532 1532 1532 1533 1532 1532 1531 1529 1528 1528 1526 1524 1522 1521 1519 1518 1517 1515 1513 1512
1496 1486 1486 1481 1480 1479 1479 1480 1482 1480 1479 1481 1485 1485 1492 1500 1506 1509 1513 1516 1519 1521 1523 1525 1527 1528 1528 1529 1530 1531 1531 1532 1532 1532 1531 1529 1527 1526 1525 1523 1522 1520 1519 1518 1516 1514 1512 1511 1510
1489 1485 1483 1481 1479 1476 1476 1478 1479 1482 1480 1482 1488 1492 1493 1499 1504 1510 1514 1516 1518 1519 1521 1523 1525 1526 1527 1529 1529 1530 1530 1530 1530 1530 1529 1528 1526 1525 1523 1521 1519 1518 1517 1515 1513 1511 1509 1508 1506
1486 1484 1481 1478 1476 1475 1479 1480 1478 1485 1484 1486 1488 1491 1492 1495 1501 1507 1511 1513 1515 1517 1519 1522 1524 1525 1526 1527 1528 1529 1530 1529 1529 1529 1527 1526 1524 1523 1522 1520 1517 1516 1514 1512 1510 1508 1506 1505 1504
1486 1485 1479 1475 1474 1475 1475 1484 1481 1480 1485 1487 1489 1491 1492 1494 1499 1502 1507 1510 1513 1515 1517 1519 1522 1524 1524 1525 1526 1527 1528 1528 1527 1526 1525 1524 1523 1521 1520 1518 1515 1514 1512 1509 1507 1506 1504 1502 1500
1487 1486 1491 1474 1472 1472 1474 1485 1480 1479 1481 1486 1486 1488 1489 1491 1495 1501 1504 1507 1510 1512 1514 1517 1519 1521 1523 1523 1524 1525 1526 1526 1525 1525 1524 1523 1521 1520 1518 1517 1515 1513 1511 1509 1506 1503 1500 1498 1496
1491 1498 1490 1481 1470 1473 1474 1476 1475 1476 1477 1479 1481 1482 1484 1488 1493 1495 1499 1503 1507 1510 1513 1515 1517 1520 1521 1521 1522 1523 1524 1524 1524 1523 1523 1521 1520 1519 1517 1516 1513 1512 1510 1507 1504 1500 1496 1493 1491
1497 1494 1487 1485 1469 1471 1474 1473 1472 1472 1473 1472 1475 1479 1481 1482 1484 1490 1494 1499 1504 1508 1510 1513 1515 1517 1518 1519 1520 1521 1521 1521 1521 1521 1520 1519 1518 1517 1516 1514 1512 1510 1507 1504 1502 1498 1495 1490 1486
1485 1487 1487 1475 1466 1472 1470 1468 1463 1463 1469 1473 1474 1475 1476 1479 1484 1488 1492 1496 1501 1505 1508 1510 1513 1515 1516 1517 1518 1518 1518 1519 1520 1519 1518 1517 1516 1516 1514 1512 1511 1508 1506 1503 1500 1497 1494 1490 1484
1482 1484 1480 1471 1463 1467 1465 1463 1453 1456 1453 1456 1461 1467 1470 1475 1480 1484 1486 1489 1495 1500 1503 1505 1509 1511 1514 1515 1516 1516 1516 1517 1517 1516 1516 1516 1516 1514 1513 1511 1509 1506 1504 1501 1499 1496 1493 1489 1484
1474 1477 1475 1474 1463 1460 1460 1461 1456 1454 1455 1454 1458 1458 1465 1464 1470 1475 1478 1482 1488 1493 1497 1500 1503 1507 1510 1512 1512 1513 1514 1515 1516 1515 1514 1514 1513 1512 1511 1510 1508 1505 1503 1500 1498 1495 1491 1488 1486
1475 1464 1465 1467 1470 1479 1456 1479 1452 1451 1453 1455 1451 1453 1458 1462 1464 1466 1469 1475 1480 1487 1492 1496 1499 1503 1506 1509 1510 1512 1513 1513 1513 1513 1512 1511 1510 1510 1509 1509 1506 1504 1501 1499 1497 1494 1491 1489 1488
1464 1460 1462 1461 1466 1468 1463 1476 1456 1445 1450 1447 1443 1445 1448 1449 1452 1456 1462 1469 1477 1481 1485 1491 1494 1499 1502 1505 1508 1509 1510 1511 1511 1511 1511 1509 1508 1508 1508 1507 1505 1503 1501 1498 1495 1493 1490 1490 1490
1459 1460 1459 1457 1465 1468 1462 1465 1448 1442 1432 1433 1431 1434 1437 1443 1449 1454 1460 1467 1474 1479 1483 1487 1490 1494 1498 1502 1505 1506 1508 1508 1509 1509 1509 1507 1506 1506 1505 1504 1503 1502 1501 1498 1495 1494 1492 1491 1490
1459 1470 1482 1480 1478 1462 1451 1454 1426 1425 1418 1414 1417 1420 1426 1434 1440 1445 1449 1458 1466 1472 1478 1482 1486 1490 1494 1498 1501 1503 1505 1506 1507 1508 1507 1506 1505 1504 1503 1502 1500 1498 1498 1497 1494 1493 1491 1489 1486
1448 1457 1475 1475 1469 1461 1446 1446 1425 1411 1409 1408 1405 1408 1416 1423 1428 1434 1441 1449 1457 1466 1472 1476 1482 1486 1490 1495 1497 1499 1501 1503 1504 1504 1505 1504 1503 1502 1501 1500 1499 1497 1495 1495 1493 1491 1490 1489 1485
1445 1449 1445 1453 1451 1463 1451 1431 1411 1408 1407 1406 1399 1401 1406 1412 1419 1426 1436 1443 1451 1461 1466 1472 1477 1483 1487 1491 1494 1495 1497 1499 1500 1500 1500 1502 1501 1501 1500 1498 1497 1495 1494 1492 1491 1489 1489 1487 1484
1439 1436 1449 1450 1457 1458 1434 1436 1421 1414 1410 1406 1405 1404 1409 1417 1424 1428 1433 1439 1449 1459 1464 1469 1473 1478 1483 1487 1490 1493 1494 1496 1497 1498 1498 1497 1497 1498 1497 1496 1494 1493 1492 1490 1491 1489 1486 1485 1483
1440 1440 1436 1432 1432 1441 1439 1427 1414 1407 1402 1406 1404 1404 1407 1412 1417 1422 1428 1437 1446 1456 1461 1465 1469 1473 1477 1482 1486 1490 1490 1492 1494 1495 1494 1494 1495 1494 1495 1493 1490 1488 1488 1487 1488 1488 1486 1481 1478
1440 1445 1455 1455 1434 1447 1437 1412 1404 1403 1402 1404 1406 1405 1407 1410 1417 1422 1426 1432 1441 1449 1455 1459 1463 1467 1473 1478 1482 1487 1487 1489 1490 1491 1491 1491 1492 1491 1492 1490 1489 1486 1486 1485 1486 1485 1482 1478 1474